Time,TemperatureF,DewpointF,PressureIn,WindDirection,WindDirectionDegrees,WindSpeedMPH,WindSpeedGustMPH,Humidity,HourlyPrecipIn,Conditions,Clouds,dailyrainin,SoftwareType,DateUTC
2013-06-07 00:01:00,67.6,47.8,27.29,South,173,2.7,2.7,49,0.00,,---,0.00,VWS V14.01,2013-06-07 04:01:00,
2013-06-07 00:02:00,67.6,47.8,27.29,South,173,0.0,2.7,49,0.00,,---,0.00,VWS V14.01,2013-06-07 04:02:00,
2013-06-07 00:07:00,67.6,47.8,27.29,ENE,59,0.0,0.0,49,0.00,,---,0.00,VWS V14.01,2013-06-07 04:07:00,
2013-06-07 00:12:00,67.5,47.7,27.29,East,91,0.0,0.0,49,0.00,,---,0.00,VWS V14.01,2013-06-07 04:12:00,
2013-06-07 00:17:00,67.5,47.7,27.29,East,91,0.0,0.0,49,0.00,,---,0.00,VWS V14.01,2013-06-07 04:17:00,
2013-06-07 00:22:00,67.5,47.7,27.29,East,91,0.0,0.0,49,0.00,,---,0.00,VWS V14.01,2013-06-07 04:22:00,
2013-06-07 00:27:00,67.5,47.7,27.29,East,91,0.0,0.0,49,0.00,,---,0.00,VWS V14.01,2013-06-07 04:27:00,
2013-06-07 00:32:00,67.3,47.5,27.29,East,91,0.0,0.0,49,0.00,,---,0.00,VWS V14.01,2013-06-07 04:32:00,
2013-06-07 00:37:00,67.3,47.5,27.29,East,92,0.0,0.0,49,0.00,,---,0.00,VWS V14.01,2013-06-07 04:37:00,
2013-06-07 00:42:00,67.3,48.0,27.29,East,92,0.0,0.0,50,0.00,,---,0.00,VWS V14.01,2013-06-07 04:42:00,
2013-06-07 00:47:00,67.3,48.0,27.29,East,92,0.0,0.0,50,0.00,,---,0.00,VWS V14.01,2013-06-07 04:47:00,
2013-06-07 00:52:00,67.3,48.0,27.29,East,92,0.0,0.0,50,0.00,,---,0.00,VWS V14.01,2013-06-07 04:52:00,
2013-06-07 00:57:00,67.1,47.9,27.29,East,92,0.0,0.0,50,0.00,,---,0.00,VWS V14.01,2013-06-07 04:57:00,
2013-06-07 01:02:00,67.1,48.4,27.29,East,92,0.0,0.0,51,0.00,,---,0.00,VWS V14.01,2013-06-07 05:02:00,
2013-06-07 01:07:00,67.1,48.4,27.29,East,92,0.0,0.0,51,0.00,,---,0.00,VWS V14.01,2013-06-07 05:07:00,
2013-06-07 01:12:00,67.1,48.4,27.29,East,92,0.0,0.0,51,0.00,,---,0.00,VWS V14.01,2013-06-07 05:12:00,
2013-06-07 01:17:00,67.1,48.4,27.29,East,92,0.0,0.0,51,0.00,,---,0.00,VWS V14.01,2013-06-07 05:17:00,
2013-06-07 01:22:00,67.1,48.9,27.29,East,92,0.0,0.0,52,0.00,,---,0.00,VWS V14.01,2013-06-07 05:22:00,
2013-06-07 01:27:00,67.1,48.9,27.29,East,92,0.0,0.0,52,0.00,,---,0.00,VWS V14.01,2013-06-07 05:27:00,
2013-06-07 01:32:00,67.1,48.9,27.29,East,92,0.0,0.0,52,0.00,,---,0.00,VWS V14.01,2013-06-07 05:32:00,
2013-06-07 01:37:00,66.9,48.7,27.29,East,92,0.0,0.0,52,0.00,,---,0.00,VWS V14.01,2013-06-07 05:37:00,
2013-06-07 01:42:00,66.9,49.2,27.29,East,92,0.0,0.0,53,0.00,,---,0.00,VWS V14.01,2013-06-07 05:42:00,
2013-06-07 01:47:00,66.9,49.2,27.29,East,92,0.0,0.0,53,0.00,,---,0.00,VWS V14.01,2013-06-07 05:47:00,
2013-06-07 01:52:00,66.9,49.2,27.29,East,92,0.0,0.0,53,0.00,,---,0.00,VWS V14.01,2013-06-07 05:52:00,
2013-06-07 01:57:00,66.9,49.2,27.26,East,92,0.0,0.0,53,0.00,,---,0.00,VWS V14.01,2013-06-07 05:57:00,
2013-06-07 02:02:00,66.7,49.6,27.26,East,92,0.0,0.0,54,0.00,,---,0.00,VWS V14.01,2013-06-07 06:02:00,
2013-06-07 02:07:00,66.7,49.6,27.26,East,92,0.0,0.0,54,0.00,,---,0.00,VWS V14.01,2013-06-07 06:07:00,
2013-06-07 02:12:00,66.7,49.6,27.26,East,92,0.0,0.0,54,0.00,,---,0.00,VWS V14.01,2013-06-07 06:12:00,
2013-06-07 02:17:00,66.7,50.1,27.26,East,92,0.0,0.0,55,0.00,,---,0.00,VWS V14.01,2013-06-07 06:17:00,
2013-06-07 02:22:00,66.7,50.1,27.26,East,92,0.0,0.0,55,0.00,,---,0.00,VWS V14.01,2013-06-07 06:22:00,
2013-06-07 02:27:00,66.7,50.1,27.26,East,92,0.0,0.0,55,0.00,,---,0.00,VWS V14.01,2013-06-07 06:27:00,
2013-06-07 02:32:00,66.7,50.1,27.26,East,84,2.7,2.7,55,0.00,,---,0.00,VWS V14.01,2013-06-07 06:32:00,
2013-06-07 02:37:00,66.7,50.6,27.26,East,84,0.0,0.0,56,0.00,,---,0.00,VWS V14.01,2013-06-07 06:37:00,
2013-06-07 02:42:00,66.7,50.6,27.26,East,84,0.0,0.0,56,0.00,,---,0.00,VWS V14.01,2013-06-07 06:42:00,
2013-06-07 02:47:00,66.7,50.6,27.26,East,84,0.0,0.0,56,0.00,,---,0.00,VWS V14.01,2013-06-07 06:47:00,
2013-06-07 02:52:00,66.7,50.6,27.26,East,85,0.0,0.0,56,0.00,,---,0.00,VWS V14.01,2013-06-07 06:52:00,
2013-06-07 02:57:00,66.7,50.6,27.26,East,84,0.0,0.0,56,0.00,,---,0.00,VWS V14.01,2013-06-07 06:57:00,
2013-06-07 03:02:00,66.6,50.9,27.26,East,84,0.0,0.0,57,0.00,,---,0.00,VWS V14.01,2013-06-07 07:02:00,
2013-06-07 03:07:00,66.6,50.9,27.26,East,84,0.0,0.0,57,0.00,,---,0.00,VWS V14.01,2013-06-07 07:07:00,
2013-06-07 03:12:00,66.6,50.9,27.23,ENE,65,2.7,2.7,57,0.00,,---,0.00,VWS V14.01,2013-06-07 07:12:00,
2013-06-07 03:17:00,66.4,50.7,27.23,ENE,65,0.0,0.0,57,0.00,,---,0.00,VWS V14.01,2013-06-07 07:17:00,
2013-06-07 03:22:00,66.4,50.7,27.23,ENE,65,0.0,0.0,57,0.00,,---,0.00,VWS V14.01,2013-06-07 07:22:00,
2013-06-07 03:27:00,66.2,50.5,27.23,ENE,65,0.0,0.0,57,0.00,,---,0.00,VWS V14.01,2013-06-07 07:27:00,
2013-06-07 03:32:00,66.2,50.5,27.23,ENE,65,0.0,0.0,57,0.00,,---,0.00,VWS V14.01,2013-06-07 07:32:00,
2013-06-07 03:37:00,66.0,50.4,27.23,ENE,65,0.0,0.0,57,0.00,,---,0.00,VWS V14.01,2013-06-07 07:37:00,
2013-06-07 03:42:00,66.0,50.4,27.23,ENE,65,0.0,0.0,57,0.00,,---,0.00,VWS V14.01,2013-06-07 07:42:00,
2013-06-07 03:47:00,66.0,50.8,27.23,ENE,65,0.0,0.0,58,0.08,,---,0.08,VWS V14.01,2013-06-07 07:47:00,
2013-06-07 03:52:00,66.0,50.8,27.23,ENE,65,0.0,0.0,58,0.08,,---,0.08,VWS V14.01,2013-06-07 07:52:00,
2013-06-07 03:57:00,66.0,50.8,27.23,ENE,65,0.0,0.0,58,0.08,,---,0.08,VWS V14.01,2013-06-07 07:57:00,
2013-06-07 04:02:00,66.0,51.3,27.23,ENE,65,0.0,0.0,59,0.08,,---,0.08,VWS V14.01,2013-06-07 08:02:00,
2013-06-07 04:07:00,65.8,51.1,27.23,ENE,65,0.0,0.0,59,0.08,,---,0.08,VWS V14.01,2013-06-07 08:07:00,
2013-06-07 04:12:00,65.8,51.1,27.23,ENE,65,0.0,0.0,59,0.08,,---,0.08,VWS V14.01,2013-06-07 08:12:00,
2013-06-07 04:17:00,65.8,51.1,27.23,ENE,65,0.0,0.0,59,0.08,,---,0.08,VWS V14.01,2013-06-07 08:17:00,
2013-06-07 04:22:00,65.8,51.6,27.23,ENE,65,0.0,0.0,60,0.08,,---,0.08,VWS V14.01,2013-06-07 08:22:00,
2013-06-07 04:27:00,65.8,51.6,27.23,ENE,65,0.0,0.0,60,0.12,,---,0.12,VWS V14.01,2013-06-07 08:27:00,
2013-06-07 04:32:00,65.8,51.6,27.23,ENE,65,0.0,0.0,60,0.12,,---,0.12,VWS V14.01,2013-06-07 08:32:00,
2013-06-07 04:37:00,65.8,52.0,27.23,ENE,65,0.0,0.0,61,0.12,,---,0.12,VWS V14.01,2013-06-07 08:37:00,
2013-06-07 04:42:00,65.8,52.0,27.20,ENE,65,0.0,0.0,61,0.00,,---,0.00,VWS V14.01,2013-06-07 08:42:00,
2013-06-07 04:47:00,65.8,52.0,27.20,ENE,65,0.0,0.0,61,0.00,,---,0.00,VWS V14.01,2013-06-07 08:47:00,
2013-06-07 04:52:00,65.7,51.9,27.20,ENE,65,0.0,0.0,61,0.00,,---,0.00,VWS V14.01,2013-06-07 08:52:00,
2013-06-07 04:57:00,65.7,51.9,27.20,ENE,65,0.0,0.0,61,0.00,,---,0.00,VWS V14.01,2013-06-07 08:57:00,
2013-06-07 05:02:00,65.5,52.1,27.20,ENE,65,0.0,0.0,62,0.00,,---,0.00,VWS V14.01,2013-06-07 09:02:00,
2013-06-07 05:07:00,65.5,52.1,27.20,ENE,65,0.0,0.0,62,0.00,,---,0.00,VWS V14.01,2013-06-07 09:07:00,
2013-06-07 05:12:00,65.5,52.1,27.20,ENE,65,0.0,0.0,62,0.00,,---,0.00,VWS V14.01,2013-06-07 09:12:00,
2013-06-07 05:17:00,65.5,52.1,27.20,ENE,65,0.0,0.0,62,0.00,,---,0.00,VWS V14.01,2013-06-07 09:17:00,
2013-06-07 05:22:00,65.5,52.6,27.20,ENE,65,0.0,0.0,63,0.00,,---,0.00,VWS V14.01,2013-06-07 09:22:00,
2013-06-07 05:27:00,65.5,52.6,27.20,ENE,65,0.0,0.0,63,0.00,,---,0.00,VWS V14.01,2013-06-07 09:27:00,
2013-06-07 05:32:00,65.5,52.6,27.20,ENE,65,0.0,0.0,63,0.00,,---,0.00,VWS V14.01,2013-06-07 09:32:00,
2013-06-07 05:37:00,65.5,52.6,27.20,ENE,65,0.0,0.0,63,0.00,,---,0.00,VWS V14.01,2013-06-07 09:37:00,
2013-06-07 05:42:00,65.5,53.0,27.20,ENE,65,0.0,0.0,64,0.00,,---,0.00,VWS V14.01,2013-06-07 09:42:00,
2013-06-07 05:47:00,65.5,53.0,27.20,ENE,65,0.0,0.0,64,0.00,,---,0.00,VWS V14.01,2013-06-07 09:47:00,
2013-06-07 05:52:00,65.5,53.0,27.20,ENE,65,0.0,0.0,64,0.00,,---,0.00,VWS V14.01,2013-06-07 09:52:00,
2013-06-07 05:57:00,65.5,53.0,27.20,ENE,65,0.0,0.0,64,0.00,,---,0.00,VWS V14.01,2013-06-07 09:57:00,
2013-06-07 06:02:00,65.5,53.0,27.20,ENE,65,0.0,0.0,64,0.00,,---,0.00,VWS V14.01,2013-06-07 10:02:00,
2013-06-07 06:07:00,65.5,53.0,27.20,ENE,65,0.0,0.0,64,0.00,,---,0.00,VWS V14.01,2013-06-07 10:07:00,
2013-06-07 06:12:00,65.5,53.4,27.20,ENE,65,0.0,0.0,65,0.00,,---,0.00,VWS V14.01,2013-06-07 10:12:00,
2013-06-07 06:17:00,65.5,53.4,27.20,ENE,65,0.0,0.0,65,0.04,,---,0.04,VWS V14.01,2013-06-07 10:17:00,
2013-06-07 06:22:00,65.5,53.4,27.20,ENE,65,0.0,0.0,65,0.04,,---,0.04,VWS V14.01,2013-06-07 10:22:00,
2013-06-07 06:27:00,65.5,53.4,27.20,South,180,0.0,0.0,65,0.04,,---,0.04,VWS V14.01,2013-06-07 10:27:00,
2013-06-07 06:32:00,65.5,53.8,27.20,SSE,164,0.0,0.0,66,0.04,,---,0.04,VWS V14.01,2013-06-07 10:32:00,
2013-06-07 06:37:00,65.5,53.8,27.20,South,191,0.0,0.0,66,0.04,,---,0.04,VWS V14.01,2013-06-07 10:37:00,
2013-06-07 06:42:00,65.5,53.8,27.20,South,191,0.0,0.0,66,0.04,,---,0.04,VWS V14.01,2013-06-07 10:42:00,
2013-06-07 06:47:00,65.5,53.8,27.20,South,191,0.0,0.0,66,0.04,,---,0.04,VWS V14.01,2013-06-07 10:47:00,
2013-06-07 06:52:00,65.5,54.2,27.20,South,191,0.0,0.0,67,0.04,,---,0.04,VWS V14.01,2013-06-07 10:52:00,
2013-06-07 06:57:00,65.7,54.4,27.20,South,191,0.0,0.0,67,0.04,,---,0.04,VWS V14.01,2013-06-07 10:57:00,
2013-06-07 07:02:00,65.7,54.4,27.20,South,191,0.0,0.0,67,0.04,,---,0.04,VWS V14.01,2013-06-07 11:02:00,
2013-06-07 07:07:00,65.7,54.4,27.20,South,191,0.0,0.0,67,0.04,,---,0.04,VWS V14.01,2013-06-07 11:07:00,
2013-06-07 07:12:00,65.7,54.4,27.20,South,191,0.0,0.0,67,0.04,,---,0.04,VWS V14.01,2013-06-07 11:12:00,
2013-06-07 07:17:00,65.7,54.4,27.20,South,191,0.0,0.0,67,0.00,,---,0.04,VWS V14.01,2013-06-07 11:17:00,
2013-06-07 07:22:00,65.7,54.8,27.20,South,182,0.0,2.2,68,0.00,,---,0.04,VWS V14.01,2013-06-07 11:22:00,
2013-06-07 07:27:00,65.7,54.8,27.20,SSW,202,0.0,0.0,68,0.00,,---,0.04,VWS V14.01,2013-06-07 11:27:00,
2013-06-07 07:32:00,65.8,55.0,27.20,SSW,202,0.0,0.0,68,0.00,,---,0.04,VWS V14.01,2013-06-07 11:32:00,
2013-06-07 07:37:00,65.8,55.4,27.20,SE,130,0.0,0.0,69,0.00,,---,0.04,VWS V14.01,2013-06-07 11:37:00,
2013-06-07 07:42:00,66.0,55.6,27.20,SE,128,3.1,3.1,69,0.00,,---,0.04,VWS V14.01,2013-06-07 11:42:00,
2013-06-07 07:47:00,66.0,55.6,27.20,SE,128,0.0,0.0,69,0.00,,---,0.04,VWS V14.01,2013-06-07 11:47:00,
2013-06-07 07:52:00,66.2,55.7,27.20,SE,128,0.0,0.0,69,0.00,,---,0.04,VWS V14.01,2013-06-07 11:52:00,
2013-06-07 07:57:00,66.2,55.7,27.20,ESE,123,0.0,2.7,69,0.00,,---,0.04,VWS V14.01,2013-06-07 11:57:00,
2013-06-07 08:02:00,66.4,55.9,27.20,ESE,123,0.0,0.0,69,0.00,,---,0.04,VWS V14.01,2013-06-07 12:02:00,
2013-06-07 08:07:00,66.4,55.9,27.20,ESE,123,0.0,0.0,69,0.00,,---,0.04,VWS V14.01,2013-06-07 12:07:00,
2013-06-07 08:12:00,66.4,55.9,27.20,ESE,123,0.0,0.0,69,0.00,,---,0.04,VWS V14.01,2013-06-07 12:12:00,
2013-06-07 08:17:00,66.4,55.9,27.20,ESE,123,0.0,0.0,69,0.00,,---,0.04,VWS V14.01,2013-06-07 12:17:00,
2013-06-07 08:22:00,66.6,56.1,27.20,ESE,123,0.0,0.0,69,0.00,,---,0.04,VWS V14.01,2013-06-07 12:22:00,
2013-06-07 08:27:00,66.6,56.1,27.20,ESE,123,0.0,0.0,69,0.00,,---,0.04,VWS V14.01,2013-06-07 12:27:00,
2013-06-07 08:32:00,66.7,56.7,27.20,ESE,123,0.0,0.0,70,0.00,,---,0.04,VWS V14.01,2013-06-07 12:32:00,
2013-06-07 08:37:00,66.7,56.7,27.20,ESE,123,0.0,0.0,70,0.00,,---,0.04,VWS V14.01,2013-06-07 12:37:00,
2013-06-07 08:42:00,66.7,56.7,27.20,ESE,123,0.0,0.0,70,0.00,,---,0.04,VWS V14.01,2013-06-07 12:42:00,
2013-06-07 08:47:00,66.7,56.7,27.20,SE,124,0.0,0.0,70,0.00,,---,0.04,VWS V14.01,2013-06-07 12:47:00,
2013-06-07 08:52:00,66.9,56.8,27.20,SE,124,0.0,0.0,70,0.00,,---,0.04,VWS V14.01,2013-06-07 12:52:00,
2013-06-07 08:57:00,66.9,56.8,27.20,ESE,104,3.6,3.6,70,0.00,,---,0.04,VWS V14.01,2013-06-07 12:57:00,
2013-06-07 09:02:00,66.9,56.8,27.20,ESE,107,0.0,0.0,70,0.00,,---,0.04,VWS V14.01,2013-06-07 13:02:00,
2013-06-07 09:07:00,67.1,57.0,27.20,ESE,107,0.0,0.0,70,0.00,,---,0.04,VWS V14.01,2013-06-07 13:07:00,
2013-06-07 09:12:00,67.1,57.0,27.20,ESE,107,0.0,0.0,70,0.00,,---,0.04,VWS V14.01,2013-06-07 13:12:00,
2013-06-07 09:17:00,67.3,57.2,27.20,ESE,107,0.0,0.0,70,0.04,,---,0.08,VWS V14.01,2013-06-07 13:17:00,
2013-06-07 09:22:00,67.3,57.2,27.20,ESE,107,0.0,0.0,70,0.04,,---,0.08,VWS V14.01,2013-06-07 13:22:00,
2013-06-07 09:27:00,67.5,57.3,27.20,East,80,0.0,0.0,70,0.04,,---,0.08,VWS V14.01,2013-06-07 13:27:00,
2013-06-07 09:32:00,67.6,57.9,27.20,East,85,0.0,0.0,71,0.04,,---,0.08,VWS V14.01,2013-06-07 13:32:00,
2013-06-07 09:37:00,67.8,57.7,27.20,SE,146,2.7,2.7,70,0.04,,---,0.08,VWS V14.01,2013-06-07 13:37:00,
2013-06-07 09:42:00,67.8,58.1,27.23,SSE,151,0.0,2.2,71,0.04,,---,0.08,VWS V14.01,2013-06-07 13:42:00,
2013-06-07 09:47:00,68.0,57.9,27.23,SSE,149,0.0,0.0,70,0.04,,---,0.08,VWS V14.01,2013-06-07 13:47:00,
2013-06-07 09:52:00,68.2,58.0,27.23,East,84,0.0,0.0,70,0.04,,---,0.08,VWS V14.01,2013-06-07 13:52:00,
2013-06-07 09:57:00,68.4,58.2,27.23,SE,134,0.0,0.0,70,0.04,,---,0.08,VWS V14.01,2013-06-07 13:57:00,
2013-06-07 10:02:00,68.5,58.4,27.23,SE,125,0.0,0.0,70,0.04,,---,0.08,VWS V14.01,2013-06-07 14:02:00,
2013-06-07 10:07:00,68.7,58.5,27.23,SE,136,0.0,3.1,70,0.04,,---,0.08,VWS V14.01,2013-06-07 14:07:00,
2013-06-07 10:12:00,68.7,58.5,27.23,ESE,114,0.0,0.0,70,0.04,,---,0.08,VWS V14.01,2013-06-07 14:12:00,
2013-06-07 10:17:00,68.9,58.7,27.23,SE,127,0.0,0.0,70,0.00,,---,0.08,VWS V14.01,2013-06-07 14:17:00,
2013-06-07 10:22:00,68.9,58.7,27.23,East,92,2.7,4.5,70,0.00,,---,0.08,VWS V14.01,2013-06-07 14:22:00,
2013-06-07 10:27:00,69.1,58.9,27.23,SE,135,0.0,2.7,70,0.00,,---,0.08,VWS V14.01,2013-06-07 14:27:00,
2013-06-07 10:32:00,69.1,58.9,27.23,SE,133,2.2,2.2,70,0.00,,---,0.08,VWS V14.01,2013-06-07 14:32:00,
2013-06-07 10:37:00,69.3,59.1,27.23,SE,134,0.0,0.0,70,0.00,,---,0.08,VWS V14.01,2013-06-07 14:37:00,
2013-06-07 10:42:00,69.3,58.7,27.23,ESE,113,2.7,4.9,69,0.00,,---,0.08,VWS V14.01,2013-06-07 14:42:00,
2013-06-07 10:47:00,69.4,58.8,27.23,SE,124,0.0,0.0,69,0.00,,---,0.08,VWS V14.01,2013-06-07 14:47:00,
2013-06-07 10:52:00,69.4,58.8,27.23,ESE,107,0.0,0.0,69,0.00,,---,0.08,VWS V14.01,2013-06-07 14:52:00,
2013-06-07 10:57:00,69.6,59.0,27.23,ESE,107,0.0,0.0,69,0.04,,---,0.12,VWS V14.01,2013-06-07 14:57:00,
2013-06-07 11:02:00,69.6,58.6,27.23,ESE,113,0.0,0.0,68,0.04,,---,0.12,VWS V14.01,2013-06-07 15:02:00,
2013-06-07 11:07:00,69.8,58.8,27.23,SE,135,0.0,0.0,68,0.04,,---,0.12,VWS V14.01,2013-06-07 15:07:00,
2013-06-07 11:12:00,67.8,56.9,27.23,SE,129,4.0,4.0,68,0.04,,---,0.12,VWS V14.01,2013-06-07 15:12:00,
2013-06-07 11:17:00,70.2,58.7,27.23,SE,125,3.6,3.6,67,0.04,,---,0.12,VWS V14.01,2013-06-07 15:17:00,
2013-06-07 11:22:00,70.2,58.7,27.23,East,95,4.9,5.8,67,0.04,,---,0.12,VWS V14.01,2013-06-07 15:22:00,
2013-06-07 11:27:00,70.0,58.1,27.23,SE,141,0.0,0.0,66,0.04,,---,0.12,VWS V14.01,2013-06-07 15:27:00,
2013-06-07 11:32:00,69.8,57.5,27.23,SSE,155,0.0,0.0,65,0.04,,---,0.12,VWS V14.01,2013-06-07 15:32:00,
2013-06-07 11:37:00,69.8,57.5,27.23,SSE,155,0.0,0.0,65,0.04,,---,0.12,VWS V14.01,2013-06-07 15:37:00,
2013-06-07 11:42:00,69.8,57.5,27.23,East,87,3.1,3.1,65,0.04,,---,0.12,VWS V14.01,2013-06-07 15:42:00,
2013-06-07 11:47:00,70.0,57.7,27.23,ESE,118,2.2,3.1,65,0.04,,---,0.12,VWS V14.01,2013-06-07 15:47:00,
2013-06-07 11:52:00,70.2,57.9,27.23,ENE,70,2.2,2.2,65,0.04,,---,0.12,VWS V14.01,2013-06-07 15:52:00,
2013-06-07 11:57:00,70.3,57.6,27.23,East,92,4.5,4.5,64,0.00,,---,0.12,VWS V14.01,2013-06-07 15:57:00,
2013-06-07 12:02:00,70.3,57.2,27.23,ESE,108,0.0,2.7,63,0.00,,---,0.12,VWS V14.01,2013-06-07 16:02:00,
2013-06-07 12:07:00,70.3,56.7,27.23,South,191,2.7,2.7,62,0.00,,---,0.12,VWS V14.01,2013-06-07 16:07:00,
2013-06-07 12:12:00,70.5,56.9,27.23,South,178,2.2,3.1,62,0.00,,---,0.12,VWS V14.01,2013-06-07 16:12:00,
2013-06-07 12:17:00,70.7,56.6,27.23,East,100,2.7,2.7,61,0.00,,---,0.12,VWS V14.01,2013-06-07 16:17:00,
2013-06-07 12:22:00,71.1,57.0,27.23,SSE,157,0.0,4.9,61,0.00,,---,0.12,VWS V14.01,2013-06-07 16:22:00,
2013-06-07 12:27:00,71.4,56.8,27.23,East,85,2.2,3.6,60,0.00,,---,0.12,VWS V14.01,2013-06-07 16:27:00,
2013-06-07 12:32:00,71.6,56.1,27.23,ENE,59,0.0,3.1,58,0.00,,---,0.12,VWS V14.01,2013-06-07 16:32:00,
2013-06-07 12:37:00,71.4,54.4,27.23,ESE,115,3.1,4.0,55,0.00,,---,0.12,VWS V14.01,2013-06-07 16:37:00,
2013-06-07 12:42:00,71.4,53.9,27.23,ESE,115,0.0,0.0,54,0.00,,---,0.12,VWS V14.01,2013-06-07 16:42:00,
2013-06-07 12:47:00,71.1,53.1,27.23,ESE,115,0.0,2.2,53,0.00,,---,0.12,VWS V14.01,2013-06-07 16:47:00,
2013-06-07 12:52:00,70.9,52.9,27.23,ESE,115,0.0,0.0,53,0.00,,---,0.12,VWS V14.01,2013-06-07 16:52:00,
2013-06-07 12:57:00,70.5,52.1,27.23,ESE,115,0.0,0.0,52,0.00,,---,0.12,VWS V14.01,2013-06-07 16:57:00,
2013-06-07 13:02:00,70.3,52.4,27.23,ESE,114,2.7,3.6,53,0.00,,---,0.12,VWS V14.01,2013-06-07 17:02:00,
2013-06-07 13:07:00,70.5,53.1,27.23,East,89,0.0,2.2,54,0.00,,---,0.12,VWS V14.01,2013-06-07 17:07:00,
2013-06-07 13:12:00,70.9,53.9,27.23,ESE,120,3.6,3.6,55,0.00,,---,0.12,VWS V14.01,2013-06-07 17:12:00,
2013-06-07 13:17:00,71.1,54.1,27.23,East,80,3.1,3.1,55,0.00,,---,0.12,VWS V14.01,2013-06-07 17:17:00,
2013-06-07 13:22:00,71.2,54.8,27.23,ESE,120,0.0,0.0,56,0.00,,---,0.12,VWS V14.01,2013-06-07 17:22:00,
2013-06-07 13:27:00,72.1,56.6,27.23,South,179,4.9,5.4,58,0.00,,---,0.12,VWS V14.01,2013-06-07 17:27:00,
2013-06-07 13:32:00,73.4,58.7,27.23,ESE,117,5.4,5.4,60,0.00,,---,0.12,VWS V14.01,2013-06-07 17:32:00,
2013-06-07 13:37:00,74.7,57.9,27.23,SE,124,3.1,3.1,56,0.00,,---,0.12,VWS V14.01,2013-06-07 17:37:00,
2013-06-07 13:42:00,75.6,58.3,27.23,SE,131,4.0,4.9,55,0.00,,---,0.12,VWS V14.01,2013-06-07 17:42:00,
2013-06-07 13:47:00,76.6,58.8,27.23,SE,143,3.1,3.6,54,0.00,,---,0.12,VWS V14.01,2013-06-07 17:47:00,
2013-06-07 13:52:00,76.8,56.8,27.23,SE,143,0.0,0.0,50,0.00,,---,0.12,VWS V14.01,2013-06-07 17:52:00,
2013-06-07 13:57:00,76.8,54.5,27.23,ESE,119,3.1,4.9,46,0.00,,---,0.12,VWS V14.01,2013-06-07 17:57:00,
2013-06-07 14:02:00,77.2,52.3,27.23,ESE,122,4.9,4.9,42,0.00,,---,0.12,VWS V14.01,2013-06-07 18:02:00,
2013-06-07 14:07:00,77.7,52.2,27.23,SE,139,3.1,4.9,41,0.00,,---,0.12,VWS V14.01,2013-06-07 18:07:00,
2013-06-07 14:12:00,78.4,52.1,27.23,ESE,123,0.0,2.7,40,0.00,,---,0.12,VWS V14.01,2013-06-07 18:12:00,
2013-06-07 14:17:00,79.3,48.6,27.23,NW,321,3.1,4.0,34,0.00,,---,0.12,VWS V14.01,2013-06-07 18:17:00,
2013-06-07 14:23:00,79.7,46.4,27.23,East,89,3.1,3.1,31,0.00,,---,0.12,VWS V14.01,2013-06-07 18:23:00,
2013-06-07 14:28:00,80.1,40.1,27.23,SE,127,5.4,5.4,24,0.00,,---,0.12,VWS V14.01,2013-06-07 18:28:00,
2013-06-07 14:33:00,80.4,41.4,27.23,NE,35,0.0,2.7,25,0.00,,---,0.12,VWS V14.01,2013-06-07 18:33:00,
2013-06-07 14:38:00,80.6,35.9,27.23,NE,48,0.0,0.0,20,0.00,,---,0.12,VWS V14.01,2013-06-07 18:38:00,
2013-06-07 14:43:00,79.5,35.0,27.23,South,172,3.1,3.1,20,0.00,,---,0.12,VWS V14.01,2013-06-07 18:43:00,
2013-06-07 14:48:00,79.5,30.9,27.23,ESE,108,4.0,4.0,17,0.00,,---,0.12,VWS V14.01,2013-06-07 18:48:00,
2013-06-07 14:53:00,80.6,35.9,27.23,ENE,73,2.2,2.7,20,0.00,,---,0.12,VWS V14.01,2013-06-07 18:53:00,
2013-06-07 14:58:00,80.2,31.5,27.23,West,278,2.2,2.2,17,0.00,,---,0.12,VWS V14.01,2013-06-07 18:58:00,
2013-06-07 15:03:00,79.3,34.8,27.23,West,278,0.0,0.0,20,0.00,,---,0.12,VWS V14.01,2013-06-07 19:03:00,
2013-06-07 15:08:00,79.0,36.9,27.23,SW,221,0.0,0.0,22,0.00,,---,0.12,VWS V14.01,2013-06-07 19:08:00,
2013-06-07 15:13:00,79.2,37.1,27.23,NE,52,2.2,4.0,22,0.00,,---,0.12,VWS V14.01,2013-06-07 19:13:00,
2013-06-07 15:19:00,79.3,36.0,27.23,SSE,149,2.7,3.1,21,0.00,,---,0.12,VWS V14.01,2013-06-07 19:19:00,
2013-06-07 15:24:00,79.3,30.8,27.23,ENE,61,0.0,3.1,17,0.00,,---,0.12,VWS V14.01,2013-06-07 19:24:00,
2013-06-07 15:29:00,79.0,30.5,27.23,SSW,210,2.7,2.7,17,0.00,,---,0.12,VWS V14.01,2013-06-07 19:29:00,
2013-06-07 15:34:00,78.6,34.2,27.23,ENE,74,3.1,4.9,20,0.00,,---,0.12,VWS V14.01,2013-06-07 19:34:00,
2013-06-07 15:39:00,78.1,31.2,27.23,SSW,198,3.6,3.6,18,0.00,,---,0.12,VWS V14.01,2013-06-07 19:39:00,
2013-06-07 15:44:00,77.9,17.0,27.23,ESE,112,2.7,2.7,10,0.00,,---,0.12,VWS V14.01,2013-06-07 19:44:00,
2013-06-07 15:49:00,77.7,34.7,27.23,East,93,0.0,0.0,21,0.00,,---,0.12,VWS V14.01,2013-06-07 19:49:00,
2013-06-07 15:54:00,77.4,33.2,27.20,East,92,2.7,2.7,20,0.00,,---,0.12,VWS V14.01,2013-06-07 19:54:00,
2013-06-07 16:00:00,77.0,35.3,27.20,East,92,2.7,3.1,22,0.00,,---,0.12,VWS V14.01,2013-06-07 20:00:00,
2013-06-07 16:05:00,76.6,30.0,27.20,East,88,2.7,2.7,18,0.00,,---,0.12,VWS V14.01,2013-06-07 20:05:00,
2013-06-07 16:10:00,76.8,30.1,27.20,ESE,122,3.1,4.0,18,0.00,,---,0.12,VWS V14.01,2013-06-07 20:10:00,
2013-06-07 16:15:00,77.2,34.3,27.20,SSE,154,2.2,3.1,21,0.00,,---,0.12,VWS V14.01,2013-06-07 20:15:00,
2013-06-07 16:20:00,77.4,36.7,27.20,East,91,5.8,5.8,23,0.00,,---,0.12,VWS V14.01,2013-06-07 20:20:00,
2013-06-07 16:25:00,77.5,33.3,27.20,ENE,61,2.7,2.7,20,0.00,,---,0.12,VWS V14.01,2013-06-07 20:25:00,
2013-06-07 16:30:00,78.1,33.8,27.20,East,82,0.0,0.0,20,0.00,,---,0.12,VWS V14.01,2013-06-07 20:30:00,
2013-06-07 16:41:00,77.4,36.7,27.20,ENE,73,2.7,3.6,23,0.00,,---,0.12,VWS V14.01,2013-06-07 20:41:00,
2013-06-07 16:46:00,77.7,30.9,27.20,ESE,117,2.7,3.1,18,0.00,,---,0.12,VWS V14.01,2013-06-07 20:46:00,
2013-06-07 16:51:00,78.4,31.5,27.20,ESE,121,2.2,2.2,18,0.00,,---,0.12,VWS V14.01,2013-06-07 20:51:00,
2013-06-07 16:56:00,78.6,23.7,27.23,SE,146,0.0,0.0,13,0.00,,---,0.12,VWS V14.01,2013-06-07 20:56:00,
2013-06-07 17:01:00,78.4,12.3,27.23,East,86,2.2,2.2,8,0.00,,---,0.12,VWS V14.01,2013-06-07 21:01:00,
2013-06-07 17:06:00,78.4,27.0,27.23,SE,126,3.1,3.1,15,0.00,,---,0.12,VWS V14.01,2013-06-07 21:06:00,
2013-06-07 17:11:00,78.1,33.8,27.23,ESE,113,2.7,5.4,20,0.00,,---,0.12,VWS V14.01,2013-06-07 21:11:00,
2013-06-07 17:16:00,77.5,30.7,27.23,SW,219,0.0,0.0,18,0.00,,---,0.12,VWS V14.01,2013-06-07 21:16:00,
2013-06-07 17:22:00,76.6,33.8,27.23,SW,219,0.0,0.0,21,0.00,,---,0.12,VWS V14.01,2013-06-07 21:22:00,
2013-06-07 17:27:00,76.1,34.5,27.23,West,279,0.0,0.0,22,0.00,,---,0.12,VWS V14.01,2013-06-07 21:27:00,
2013-06-07 17:32:00,75.0,33.6,27.23,West,279,2.2,2.2,22,0.00,,---,0.12,VWS V14.01,2013-06-07 21:32:00,
2013-06-07 17:37:00,74.5,34.3,27.23,West,279,0.0,2.2,23,0.00,,---,0.12,VWS V14.01,2013-06-07 21:37:00,
2013-06-07 17:42:00,73.9,36.9,27.23,West,277,0.0,0.0,26,0.00,,---,0.12,VWS V14.01,2013-06-07 21:42:00,
2013-06-07 17:47:00,73.9,40.6,27.23,West,277,0.0,0.0,30,0.00,,---,0.12,VWS V14.01,2013-06-07 21:47:00,
2013-06-07 17:52:00,73.9,41.4,27.23,SE,142,0.0,0.0,31,0.00,,---,0.12,VWS V14.01,2013-06-07 21:52:00,
2013-06-07 17:57:00,73.8,41.3,27.23,SW,215,0.0,0.0,31,0.00,,---,0.12,VWS V14.01,2013-06-07 21:57:00,
2013-06-07 18:02:00,73.8,42.1,27.23,SE,138,2.2,2.2,32,0.00,,---,0.12,VWS V14.01,2013-06-07 22:02:00,
2013-06-07 18:07:00,73.8,42.1,27.23,WSW,237,2.2,2.2,32,0.00,,---,0.12,VWS V14.01,2013-06-07 22:07:00,
2013-06-07 18:12:00,74.1,41.6,27.23,South,172,2.2,2.2,31,0.00,,---,0.12,VWS V14.01,2013-06-07 22:12:00,
2013-06-07 18:17:00,74.3,40.9,27.23,SSW,196,2.7,2.7,30,0.00,,---,0.12,VWS V14.01,2013-06-07 22:17:00,
2013-06-07 18:22:00,74.5,41.0,27.23,ESE,112,0.0,0.0,30,0.00,,---,0.12,VWS V14.01,2013-06-07 22:22:00,
2013-06-07 18:27:00,74.5,39.3,27.23,ESE,117,0.0,0.0,28,0.00,,---,0.12,VWS V14.01,2013-06-07 22:27:00,
2013-06-07 18:32:00,74.3,37.2,27.23,West,260,0.0,0.0,26,0.00,,---,0.12,VWS V14.01,2013-06-07 22:32:00,
2013-06-07 18:37:00,74.1,37.1,27.23,SE,140,2.2,2.2,26,0.00,,---,0.12,VWS V14.01,2013-06-07 22:37:00,
2013-06-07 18:42:00,74.1,38.0,27.23,East,87,3.1,3.1,27,0.00,,---,0.12,VWS V14.01,2013-06-07 22:42:00,
2013-06-07 18:48:00,74.1,39.0,27.23,ESE,102,0.0,0.0,28,0.00,,---,0.12,VWS V14.01,2013-06-07 22:48:00,
2013-06-07 18:53:00,73.9,40.6,27.23,ESE,103,0.0,2.2,30,0.00,,---,0.12,VWS V14.01,2013-06-07 22:53:00,
2013-06-07 18:58:00,73.6,41.1,27.23,ESE,103,0.0,0.0,31,0.00,,---,0.12,VWS V14.01,2013-06-07 22:58:00,
2013-06-07 19:03:00,72.7,41.2,27.23,West,281,0.0,0.0,32,0.00,,---,0.12,VWS V14.01,2013-06-07 23:03:00,
2013-06-07 19:08:00,71.8,40.4,27.23,West,281,0.0,0.0,32,0.04,,---,0.16,VWS V14.01,2013-06-07 23:08:00,
2013-06-07 19:13:00,71.1,41.3,27.26,SW,233,2.7,3.1,34,0.12,,---,0.24,VWS V14.01,2013-06-07 23:13:00,
2013-06-07 19:18:00,70.3,41.4,27.26,SW,233,0.0,0.0,35,0.24,,---,0.35,VWS V14.01,2013-06-07 23:18:00,
2013-06-07 19:23:00,69.8,42.4,27.26,SW,233,0.0,0.0,37,0.39,,---,0.51,VWS V14.01,2013-06-07 23:23:00,
2013-06-07 19:28:00,69.3,43.3,27.29,South,172,0.0,0.0,39,0.63,,---,0.75,VWS V14.01,2013-06-07 23:28:00,
2013-06-07 19:33:00,68.5,43.9,27.29,WSW,243,0.0,0.0,41,0.71,,---,0.83,VWS V14.01,2013-06-07 23:33:00,
2013-06-07 19:38:00,68.2,44.9,27.29,WSW,243,0.0,0.0,43,0.71,,---,0.83,VWS V14.01,2013-06-07 23:38:00,
2013-06-07 19:43:00,67.8,45.1,27.29,SE,140,0.0,0.0,44,0.79,,---,0.91,VWS V14.01,2013-06-07 23:43:00,
2013-06-07 19:48:00,67.6,45.6,27.29,SSW,201,0.0,2.2,45,0.79,,---,0.91,VWS V14.01,2013-06-07 23:48:00,
2013-06-07 19:53:00,67.3,45.2,27.29,SSW,201,0.0,0.0,45,0.83,,---,0.94,VWS V14.01,2013-06-07 23:53:00,
2013-06-07 19:58:00,67.1,45.7,27.29,SSW,201,0.0,0.0,46,0.87,,---,0.98,VWS V14.01,2013-06-07 23:58:00,
2013-06-07 20:03:00,66.7,45.9,27.29,SSW,201,0.0,0.0,47,0.87,,---,0.98,VWS V14.01,2013-06-08 00:03:00,
2013-06-07 20:09:00,66.6,46.3,27.29,SSW,201,0.0,0.0,48,0.87,,---,1.02,VWS V14.01,2013-06-08 00:09:00,
2013-06-07 20:14:00,66.6,46.3,27.29,SSW,201,0.0,0.0,48,0.79,,---,1.02,VWS V14.01,2013-06-08 00:14:00,
2013-06-07 20:19:00,66.6,46.8,27.29,SSW,201,0.0,0.0,49,0.63,,---,1.02,VWS V14.01,2013-06-08 00:19:00,
2013-06-07 20:24:00,66.6,46.8,27.32,SSW,201,0.0,0.0,49,0.47,,---,1.02,VWS V14.01,2013-06-08 00:24:00,
2013-06-07 20:29:00,66.4,47.2,27.32,SSW,201,0.0,0.0,50,0.31,,---,1.06,VWS V14.01,2013-06-08 00:29:00,
2013-06-07 20:34:00,66.4,47.2,27.32,SSW,201,0.0,0.0,50,0.24,,---,1.06,VWS V14.01,2013-06-08 00:34:00,
2013-06-07 20:39:00,66.4,47.7,27.32,SSW,201,0.0,0.0,51,0.31,,---,1.14,VWS V14.01,2013-06-08 00:39:00,
2013-06-07 20:44:00,66.2,47.6,27.32,SSW,201,0.0,0.0,51,0.24,,---,1.14,VWS V14.01,2013-06-08 00:44:00,
2013-06-07 20:49:00,66.2,48.1,27.32,SSW,201,0.0,0.0,52,0.24,,---,1.14,VWS V14.01,2013-06-08 00:49:00,
2013-06-07 20:54:00,66.0,48.4,27.32,SSW,200,0.0,0.0,53,0.20,,---,1.14,VWS V14.01,2013-06-08 00:54:00,
2013-06-07 20:59:00,66.0,48.4,27.32,SSW,201,0.0,0.0,53,0.20,,---,1.18,VWS V14.01,2013-06-08 00:59:00,
2013-06-07 21:04:00,66.2,48.6,27.32,SSW,201,0.0,0.0,53,0.20,,---,1.18,VWS V14.01,2013-06-08 01:04:00,
2013-06-07 21:09:00,66.0,48.9,27.32,SSW,201,0.0,0.0,54,0.16,,---,1.18,VWS V14.01,2013-06-08 01:09:00,
2013-06-07 21:14:00,66.0,48.9,27.32,SSW,201,0.0,0.0,54,0.16,,---,1.18,VWS V14.01,2013-06-08 01:14:00,
2013-06-07 21:19:00,66.2,49.1,27.32,SSW,201,0.0,0.0,54,0.16,,---,1.18,VWS V14.01,2013-06-08 01:19:00,
2013-06-07 21:25:00,66.2,49.6,27.32,SSW,201,0.0,0.0,55,0.16,,---,1.18,VWS V14.01,2013-06-08 01:25:00,
2013-06-07 21:30:00,66.0,49.4,27.32,SSW,201,0.0,0.0,55,0.12,,---,1.18,VWS V14.01,2013-06-08 01:30:00,
2013-06-07 21:35:00,66.0,49.9,27.32,SSW,201,0.0,0.0,56,0.12,,---,1.18,VWS V14.01,2013-06-08 01:35:00,
2013-06-07 21:40:00,66.0,49.9,27.32,SSW,201,0.0,0.0,56,0.04,,---,1.18,VWS V14.01,2013-06-08 01:40:00,
2013-06-07 21:45:00,66.0,49.9,27.32,SSW,201,0.0,0.0,56,0.04,,---,1.18,VWS V14.01,2013-06-08 01:45:00,
2013-06-07 21:50:00,66.0,49.9,27.32,SSW,201,0.0,0.0,56,0.04,,---,1.18,VWS V14.01,2013-06-08 01:50:00,
2013-06-07 21:55:00,66.0,49.9,27.32,SSW,201,0.0,0.0,56,0.04,,---,1.18,VWS V14.01,2013-06-08 01:55:00,
2013-06-07 22:00:00,66.0,49.9,27.32,SSW,201,0.0,0.0,56,0.00,,---,1.18,VWS V14.01,2013-06-08 02:00:00,
2013-06-07 22:05:00,65.8,50.2,27.32,SSW,201,0.0,0.0,57,0.00,,---,1.18,VWS V14.01,2013-06-08 02:05:00,
2013-06-07 22:10:00,65.7,49.6,27.32,SSW,201,0.0,0.0,56,0.00,,---,1.18,VWS V14.01,2013-06-08 02:10:00,
2013-06-07 22:15:00,65.5,49.4,27.32,SSW,201,0.0,0.0,56,0.00,,---,1.18,VWS V14.01,2013-06-08 02:15:00,
2013-06-07 22:20:00,65.5,49.9,27.32,SSW,201,0.0,0.0,57,0.00,,---,1.18,VWS V14.01,2013-06-08 02:20:00,
2013-06-07 22:25:00,65.5,49.9,27.32,SSW,201,0.0,0.0,57,0.00,,---,1.18,VWS V14.01,2013-06-08 02:25:00,
2013-06-07 22:30:00,65.3,49.7,27.32,SSW,201,0.0,0.0,57,0.00,,---,1.18,VWS V14.01,2013-06-08 02:30:00,
2013-06-07 22:35:00,65.3,49.7,27.32,SSW,201,0.0,0.0,57,0.00,,---,1.18,VWS V14.01,2013-06-08 02:35:00,
2013-06-07 22:40:00,65.3,50.2,27.34,SSW,201,0.0,0.0,58,0.00,,---,1.18,VWS V14.01,2013-06-08 02:40:00,
2013-06-07 22:45:00,65.3,50.2,27.34,SSW,201,0.0,0.0,58,0.00,,---,1.18,VWS V14.01,2013-06-08 02:45:00,
2013-06-07 22:50:00,65.3,50.2,27.34,SSW,201,0.0,0.0,58,0.00,,---,1.18,VWS V14.01,2013-06-08 02:50:00,
2013-06-07 22:55:00,65.3,50.6,27.34,SSW,201,0.0,0.0,59,0.00,,---,1.18,VWS V14.01,2013-06-08 02:55:00,
2013-06-07 23:00:00,65.3,50.6,27.34,SSW,201,0.0,0.0,59,0.00,,---,1.18,VWS V14.01,2013-06-08 03:00:00,
2013-06-07 23:05:00,65.3,50.6,27.34,SSW,201,0.0,0.0,59,0.00,,---,1.18,VWS V14.01,2013-06-08 03:05:00,
2013-06-07 23:11:00,65.3,50.6,27.34,SSW,201,0.0,0.0,59,0.00,,---,1.18,VWS V14.01,2013-06-08 03:11:00,
2013-06-07 23:16:00,65.3,51.1,27.34,SSW,201,0.0,0.0,60,0.00,,---,1.18,VWS V14.01,2013-06-08 03:16:00,
2013-06-07 23:21:00,65.3,51.1,27.34,SSW,201,0.0,0.0,60,0.00,,---,1.18,VWS V14.01,2013-06-08 03:21:00,
2013-06-07 23:26:00,65.3,51.1,27.34,SSW,201,0.0,0.0,60,0.00,,---,1.18,VWS V14.01,2013-06-08 03:26:00,
2013-06-07 23:31:00,65.3,51.5,27.34,SSW,201,0.0,0.0,61,0.00,,---,1.18,VWS V14.01,2013-06-08 03:31:00,
2013-06-07 23:36:00,65.5,51.7,27.34,SSW,201,0.0,0.0,61,0.00,,---,1.18,VWS V14.01,2013-06-08 03:36:00,
2013-06-07 23:41:00,65.3,51.5,27.34,SSW,201,0.0,0.0,61,0.00,,---,1.18,VWS V14.01,2013-06-08 03:41:00,
2013-06-07 23:46:00,65.3,51.5,27.34,SSW,201,0.0,0.0,61,0.00,,---,1.18,VWS V14.01,2013-06-08 03:46:00,
2013-06-07 23:51:00,65.1,51.3,27.34,SSW,201,0.0,0.0,61,0.00,,---,1.18,VWS V14.01,2013-06-08 03:51:00,
2013-06-07 23:56:00,65.1,51.3,27.34,SSW,201,0.0,0.0,61,0.00,,---,1.18,VWS V14.01,2013-06-08 03:56:00,